DW5624 Weather Reports


Display with metric or nautical units.
time (UTC)temp
F
wind
direction
speed
MPH
gust
MPH
rain 1hr
in
rain 24hr
in
rain mn
in
humidity
%
barometer
mb
20260504174405 82 171 7.0 16.0 0.00 0.00 0.00 63 1012.9
20260504171905 82 169 6.0 12.0 0.00 0.00 0.00 64 1013.2
20260504160404 80 174 5.0 12.0 0.00 0.00 0.00 65 1014.2
20260504140905 72 130 5.0 9.0 0.00 0.00 0.00 76 1014.0
20260504130404 61 322 0.0 2.0 0.00 0.00 0.00 94 1014.2
20260504081405 59 115 0.0 0.0 0.00 0.00 0.00 85 1015.0
20260504070404 60 115 0.0 0.0 0.00 0.00 0.00 82 1015.8
20260504050404 62 115 0.0 0.0 0.00 0.00 0.00 76 1016.6
20260504045405 62 115 0.0 0.0 0.00 0.00 0.00 75 1016.6
20260504044405 62 115 0.0 0.0 0.00 0.00 0.00 75 1016.7
20260504043904 62 115 0.0 0.0 0.00 0.00 0.00 74 1016.9
20260504043404 63 115 0.0 0.0 0.00 0.00 0.00 74 1016.9
20260504041404 64 115 0.0 1.0 0.00 0.00 0.00 72 1016.7
20260504035904 64 115 0.0 2.0 0.00 0.00 0.00 71 1016.7
20260504032404 65 115 0.0 0.0 0.00 0.00 0.00 69 1016.8
20260504031904 66 115 1.0 3.0 0.00 0.00 0.00 68 1016.8
20260504025904 66 116 3.0 6.0 0.00 0.00 0.00 66 1016.6
20260504025405 67 112 1.0 7.0 0.00 0.00 0.00 66 1016.7
20260504023904 67 111 2.0 3.0 0.00 0.00 0.00 65 1016.7
20260504023404 67 111 2.0 5.0 0.00 0.00 0.00 65 1016.6
20260504022904 68 101 2.0 3.0 0.00 0.00 0.00 65 1016.6
20260504022405 68 113 3.0 6.0 0.00 0.00 0.00 65 1016.6
20260504020904 68 113 3.0 7.0 0.00 0.00 0.00 64 1016.5
20260504020404 68 123 3.0 7.0 0.00 0.00 0.00 63 1016.5
20260504013904 69 116 3.0 6.0 0.00 0.00 0.00 63 1016.5
20260504013404 69 117 3.0 6.0 0.00 0.00 0.00 62 1016.5
20260504012904 70 115 2.0 5.0 0.00 0.00 0.00 62 1016.5
20260504011904 70 140 3.0 6.0 0.00 0.00 0.00 61 1016.4
20260504010904 71 117 2.0 5.0 0.00 0.00 0.00 59 1016.3
20260504010404 71 114 5.0 9.0 0.00 0.00 0.00 58 1016.4
20260504005404 72 115 3.0 7.0 0.00 0.00 0.00 57 1016.4
20260504004904 72 119 4.0 7.0 0.00 0.00 0.00 56 1016.3
20260504004404 72 139 5.0 8.0 0.00 0.00 0.00 56 1016.3
20260504003404 73 105 5.0 8.0 0.00 0.00 0.00 53 1016.3
20260504002904 73 115 4.0 8.0 0.00 0.00 0.00 53 1016.3
20260504002404 73 126 4.0 7.0 0.00 0.00 0.00 53 1016.3
20260504000904 75 145 3.0 6.0 0.00 0.00 0.00 51 1016.3
20260504000404 75 118 4.0 10.0 0.00 0.00 0.00 50 1016.5
20260503235404 76 140 6.0 10.0 0.00 0.00 0.00 50 1016.3
20260503234904 76 115 5.0 9.0 0.00 0.00 0.00 50 1016.5
20260503234405 76 107 5.0 12.0 0.00 0.00 0.00 49 1016.6
20260503233904 77 138 5.0 8.0 0.00 0.00 0.00 49 1016.6
20260503233404 77 179 6.0 14.0 0.00 0.00 0.00 49 1016.7
20260503231904 78 110 5.0 12.0 0.00 0.00 0.00 47 1016.6
20260503231404 78 129 5.0 12.0 0.00 0.00 0.00 46 1016.6
20260503230904 78 122 6.0 9.0 0.00 0.00 0.00 45 1016.6
20260503230404 79 138 4.0 9.0 0.00 0.00 0.00 46 1016.7
20260503225904 79 122 5.0 9.0 0.00 0.00 0.00 46 1016.8
20260503223903 79 137 5.0 10.0 0.00 0.00 0.00 46 1017.0
20260503223405 80 113 4.0 8.0 0.00 0.00 0.00 45 1017.1
20260503222904 80 112 6.0 12.0 0.00 0.00 0.00 43 1017.1
20260503222404 80 113 6.0 9.0 0.00 0.00 0.00 46 1017.2
20260503220904 80 80 6.0 10.0 0.00 0.00 0.00 43 1017.1
20260503220404 81 171 5.0 8.0 0.00 0.00 0.00 45 1017.1
20260503215904 81 149 4.0 9.0 0.00 0.00 0.00 47 1017.1
20260503215404 82 148 6.0 12.0 0.00 0.00 0.00 42 1017.1
20260503213904 84 49 5.0 9.0 0.00 0.00 0.00 41 1017.4
20260503213404 85 48 5.0 8.0 0.00 0.00 0.00 40 1017.5
20260503212904 85 14 2.0 10.0 0.00 0.00 0.00 41 1017.5
20260503205403 86 50 6.0 9.0 0.00 0.00 0.00 39 1017.9
20260503204905 86 53 6.0 12.0 0.00 0.00 0.00 39 1017.9
20260503204404 85 72 5.0 8.0 0.00 0.00 0.00 39 1018.0
20260503203904 85 36 5.0 13.0 0.00 0.00 0.00 40 1018.1
20260503202404 85 51 3.0 8.0 0.00 0.00 0.00 43 1018.5
20260503201404 85 59 7.0 10.0 0.00 0.00 0.00 40 1018.7
20260503195904 85 65 6.0 12.0 0.00 0.00 0.00 40 1018.9
20260503195404 85 66 7.0 12.0 0.00 0.00 0.00 39 1019.0
20260503194904 85 65 7.0 12.0 0.00 0.00 0.00 39 1019.0
20260503193403 85 8 6.0 12.0 0.00 0.00 0.00 41 1019.4
20260503192904 85 71 7.0 12.0 0.00 0.00 0.00 39 1019.4
20260503190904 85 58 7.0 13.0 0.00 0.00 0.00 38 1019.6
20260503185904 85 25 3.0 8.0 0.00 0.00 0.00 39 1019.7
20260503182904 84 110 3.0 10.0 0.00 0.00 0.00 41 1020.1
20260503181904 84 64 4.0 9.0 0.00 0.00 0.00 40 1020.3
20260503181404 83 89 7.0 12.0 0.00 0.00 0.00 41 1020.3
20260503180404 83 355 1.0 7.0 0.00 0.00 0.00 42 1020.4
20260503175904 82 43 7.0 10.0 0.00 0.00 0.00 44 1020.5